Vorticity
4 35 -8 11 -8 7 17 13 16 11 4 18 6 7 4 4 11 7 3 11 4 3 3 3 4 4 2 5 6 8 7 8 12 -2 4 23 5 11 7 9 4 3 8 14
1 -2 3 14 9 5 12 4 12 -6 7 17 7 3 4 7 6 5 10 8 6 3 4 4 7 8 5 7 7 5 4 4 7 4 4 0 3 7 8 8 8 13 9 9
19 9 3 -1 4 3 17 9 -2 6 19 13 6 3 4 9 6 4 2 5 6 5 7 8 4 3 5 7 7 6 5 9 10 6 6 15 10 9 8 5 5 7 6 6
12 13 -2 8 6 -3 2 5 2 0 16 2 2 3 13 -4 10 2 0 3 5 5 3 4 5 5 5 1 3 9 11 9 11 14 9 9 7 5 5 4 2 1 3 4
13 6 8 7 3 12 -4 16 15 14 6 -5 -0 13 11 -31 2 11 6 6 6 4 4 5 6 7 7 6 17 15 15 11 5 5 4 3 3 3 2 2 2 3 2 2
-1 3 -8 -3 5 6 10 3 8 4 12 7 12 5 2 11 12 10 11 5 4 4 6 8 9 8 16 14 10 6 4 5 2 3 3 4 4 4 3 3 3 4 5 6
-5 3 6 4 8 15 7 9 1 3 10 2 9 4 8 11 9 10 20 22 18 14 13 15 18 11 7 6 5 3 3 2 2 3 4 3 5 5 4 6 5 7 7 8
9 7 9 4 18 3 20 1 5 3 8 7 11 14 16 18 15 19 23 23 21 19 14 8 5 4 4 4 3 1 2 2 3 3 3 4 4 5 4 5 5 6 7 6
2 5 -3 16 8 4 11 9 12 1 6 5 20 5 17 15 16 6 5 6 7 5 2 2 2 2 2 3 3 2 2 3 5 4 5 4 5 6 6 6 6 7 6 7
36 2 11 8 4 1 3 6 7 6 6 17 15 14 10 2 8 8 7 3 4 5 5 5 4 4 4 3 2 3 3 4 4 5 5 6 5 6 6 5 6 6 7 6
-1 -4 19 4 4 2 19 9 7 7 11 12 8 11 1 7 7 4 3 4 4 4 5 6 6 6 4 5 5 6 6 6 6 3 4 5 6 6 5 7 6 7 8 7
7 0 -1 2 7 9 6 8 6 15 11 12 6 -7 -0 5 8 5 4 3 3 2 4 4 3 4 5 6 6 8 7 8 6 6 8 7 4 5 8 6 7 8 9 10
6 5 6 5 7 9 10 17 18 10 13 7 2 -2 2 4 4 4 3 2 2 3 5 3 5 5 5 7 6 8 8 6 8 8 9 10 5 7 6 7 7 10 8 5
5 5 6 7 9 4 17 14 8 11 9 5 5 -4 8 5 3 3 1 3 3 3 2 3 4 5 7 7 6 9 7 6 7 8 12 8 7 7 8 7 9 5 4 4
6 9 10 12 13 10 9 9 8 9 6 1 3 1 3 1 1 3 3 1 2 1 3 4 6 7 7 9 8 7 7 7 9 11 11 7 8 8 10 9 7 2 2 7
14 14 12 12 15 10 12 9 9 8 5 3 2 3 4 2 2 2 2 2 3 3 4 8 9 8 9 8 9 9 7 9 11 11 9 7 9 12 8 7 6 0 4 8
13 13 13 8 9 10 9 9 10 7 6 5 4 3 0 2 2 1 3 4 5 7 9 10 9 9 11 9 8 8 12 12 10 7 7 9 10 7 4 4 2 4 7 12
13 14 12 13 11 7 6 8 8 8 6 5 4 4 3 2 5 5 6 8 10 9 9 11 11 9 9 8 8 13 12 8 8 8 9 10 6 5 6 3 -8 4 10 9
12 10 9 8 7 5 6 9 6 7 5 6 6 6 7 9 9 9 8 10 10 11 10 10 9 8 9 11 14 9 8 8 9 9 11 9 8 7 -2 -6 -6 17 -8 7
12 11 10 9 9 9 10 10 10 9 10 12 10 8 9 8 9 10 9 10 11 11 10 11 10 12 13 10 8 6 9 10 10 6 2 4 5 11 1 -8 14 -10 3 4
7 7 6 7 8 11 10 9 7 6 4 5 6 6 6 8 11 13 14 12 11 11 13 13 12 9 7 6 10 9 10 5 9 4 11 18 21 11 -2 8 -3 9 4 3
10 8 7 5 4 5 3 3 4 4 6 6 6 7 10 11 10 9 10 11 11 10 11 9 6 6 9 9 10 8 5 7 6 1 10 8 12 3 11 6 8 -1 6 11
2 3 3 4 1 3 1 4 5 4 6 7 10 11 10 10 10 9 10 10 10 7 6 7 10 11 12 10 7 4 7 11 4 -0 -2 2 32 3 13 1 -4 12 13 8
2 3 5 6 3 3 5 5 5 7 9 9 10 11 11 10 10 11 9 8 7 9 12 10 10 7 5 8 4 4 14 1 3 11 17 17 -1 9 -2 -7 21 12 11 18
3 5 5 5 4 8 3 7 9 8 12 13 10 9 9 10 9 9 10 11 11 9 8 7 7 7 4 8 6 12 5 18 15 15 8 8 9 2 -3 19 3 15 19 21
7 6 5 5 5 7 6 10 12 13 11 8 7 10 9 8 9 10 10 7 8 9 6 6 5 5 7 8 20 9 16 21 6 -5 -5 12 -1 -5 18 12 13 19 17 19
Height
5765 5765 5769 5771 5772 5776 5780 5783 5785 5786 5783 5784 5786 5786 5787 5788 5789 5789 5790 5790 5791 5789 5789 5789 5789 5790 5789 5789 5789 5788 5787 5787 5784 5782 5779 5777 5776 5772 5767 5761 5759 5755 5751 5746
5766 5767 5768 5771 5773 5775 5780 5782 5782 5782 5783 5785 5786 5787 5786 5787 5787 5789 5789 5789 5788 5788 5788 5789 5788 5788 5787 5786 5785 5784 5782 5781 5779 5777 5774 5771 5766 5760 5757 5755 5750 5746 5740 5734
5765 5768 5770 5773 5775 5776 5778 5780 5777 5784 5783 5785 5787 5789 5785 5786 5786 5787 5786 5786 5787 5787 5787 5786 5786 5785 5784 5782 5779 5778 5777 5775 5773 5771 5769 5765 5760 5755 5750 5745 5740 5735 5730 5725
5758 5762 5770 5773 5775 5776 5775 5778 5779 5781 5783 5784 5783 5787 5781 5784 5786 5785 5785 5785 5785 5784 5783 5783 5782 5781 5779 5777 5776 5773 5771 5769 5767 5764 5761 5757 5753 5748 5745 5740 5735 5730 5724 5717
5766 5766 5770 5773 5773 5775 5769 5775 5779 5781 5782 5779 5783 5786 5782 5781 5783 5783 5782 5782 5781 5781 5780 5779 5777 5776 5775 5774 5772 5769 5767 5764 5763 5760 5756 5752 5748 5744 5738 5732 5726 5721 5714 5709
5760 5764 5768 5766 5771 5772 5774 5776 5777 5778 5780 5781 5783 5783 5787 5780 5780 5776 5778 5777 5777 5777 5776 5774 5773 5772 5771 5770 5768 5766 5763 5761 5758 5755 5751 5747 5742 5736 5729 5724 5718 5711 5704 5697
5761 5763 5765 5768 5769 5771 5773 5775 5777 5777 5779 5778 5778 5779 5781 5778 5776 5774 5774 5773 5773 5773 5772 5771 5770 5769 5767 5766 5764 5761 5759 5756 5753 5749 5744 5739 5733 5727 5720 5715 5708 5702 5695 5688
5763 5765 5764 5765 5768 5770 5770 5774 5775 5775 5777 5778 5775 5775 5776 5773 5773 5772 5771 5770 5769 5769 5769 5768 5767 5765 5763 5761 5759 5756 5753 5750 5745 5740 5735 5730 5724 5718 5712 5706 5700 5692 5684 5677
5760 5759 5762 5762 5764 5767 5768 5770 5770 5771 5772 5772 5773 5775 5771 5770 5769 5769 5769 5768 5768 5767 5766 5765 5763 5761 5758 5756 5753 5750 5745 5742 5737 5732 5726 5721 5715 5709 5703 5696 5688 5681 5673 5665
5756 5759 5759 5760 5762 5765 5766 5767 5769 5768 5768 5769 5773 5771 5773 5768 5768 5767 5766 5766 5765 5763 5762 5760 5758 5755 5753 5750 5747 5742 5737 5733 5728 5723 5717 5711 5705 5699 5692 5685 5677 5669 5661 5653
5755 5757 5756 5758 5760 5762 5762 5763 5765 5765 5765 5766 5767 5771 5766 5766 5765 5764 5763 5762 5761 5759 5757 5755 5753 5750 5746 5742 5739 5734 5728 5724 5718 5712 5706 5700 5694 5688 5680 5673 5665 5657 5648 5640
5750 5752 5753 5755 5754 5757 5758 5760 5760 5761 5763 5762 5763 5764 5763 5763 5762 5761 5760 5758 5757 5755 5752 5749 5746 5742 5738 5734 5729 5725 5719 5714 5708 5702 5696 5690 5683 5675 5668 5660 5652 5643 5635 5625
5748 5749 5750 5751 5754 5754 5755 5755 5756 5756 5758 5759 5760 5762 5759 5759 5758 5757 5755 5753 5751 5749 5746 5742 5738 5734 5729 5724 5719 5714 5709 5704 5698 5691 5684 5677 5671 5663 5655 5647 5638 5629 5620 5611
5743 5745 5746 5748 5750 5749 5749 5750 5751 5752 5754 5756 5757 5757 5755 5753 5751 5750 5750 5747 5744 5742 5738 5734 5729 5725 5720 5715 5709 5704 5699 5692 5686 5679 5671 5664 5658 5650 5642 5633 5623 5615 5606 5596
5739 5741 5741 5742 5742 5744 5745 5746 5747 5748 5751 5751 5755 5751 5753 5748 5743 5743 5741 5739 5736 5734 5729 5725 5719 5714 5709 5703 5698 5692 5687 5680 5673 5666 5659 5652 5645 5637 5628 5619 5610 5602 5592 5582
5734 5735 5736 5737 5738 5739 5740 5742 5743 5744 5746 5746 5747 5745 5745 5740 5738 5736 5733 5730 5727 5722 5718 5713 5708 5702 5697 5692 5686 5680 5674 5668 5661 5654 5647 5639 5632 5623 5615 5606 5597 5588 5577 5566
5728 5729 5731 5732 5734 5734 5737 5739 5739 5739 5740 5740 5738 5740 5735 5733 5731 5729 5725 5721 5717 5711 5706 5701 5696 5690 5685 5679 5674 5668 5661 5655 5648 5641 5635 5627 5618 5610 5601 5592 5582 5572 5562 5551
5724 5725 5726 5728 5729 5729 5733 5733 5733 5733 5734 5732 5730 5730 5727 5723 5722 5718 5714 5709 5705 5700 5696 5691 5685 5679 5673 5667 5662 5655 5649 5643 5637 5630 5621 5613 5605 5595 5586 5577 5568 5557 5546 5534
5719 5720 5722 5722 5724 5726 5727 5728 5728 5727 5727 5722 5724 5722 5719 5715 5712 5707 5703 5700 5694 5689 5684 5679 5673 5667 5661 5656 5649 5643 5637 5630 5624 5616 5608 5599 5590 5581 5572 5562 5552 5542 5531 5518
5715 5716 5718 5719 5719 5720 5721 5721 5721 5720 5719 5717 5716 5713 5710 5706 5702 5695 5691 5687 5682 5678 5672 5667 5661 5655 5650 5644 5638 5631 5624 5618 5610 5603 5593 5584 5577 5567 5557 5546 5536 5525 5514 5504
5711 5712 5713 5714 5714 5714 5714 5714 5714 5713 5714 5709 5706 5702 5699 5695 5691 5685 5680 5675 5670 5665 5660 5655 5649 5644 5637 5632 5626 5619 5612 5604 5596 5588 5581 5572 5563 5552 5541 5530 5519 5510 5499 5488
5707 5708 5709 5708 5708 5708 5708 5707 5707 5705 5702 5699 5695 5691 5687 5682 5677 5673 5669 5664 5659 5653 5649 5644 5638 5632 5626 5618 5612 5604 5597 5590 5581 5573 5565 5556 5546 5536 5524 5515 5505 5495 5484 5472
5703 5704 5704 5704 5702 5700 5699 5698 5696 5694 5691 5688 5684 5679 5674 5670 5665 5660 5656 5651 5647 5640 5636 5631 5626 5618 5612 5605 5599 5592 5583 5575 5567 5559 5550 5540 5531 5520 5509 5499 5491 5480 5465 5456
5696 5697 5696 5697 5694 5691 5690 5687 5685 5682 5679 5675 5671 5667 5663 5659 5653 5648 5645 5639 5634 5628 5623 5616 5612 5605 5598 5591 5585 5578 5570 5562 5553 5543 5533 5524 5515 5504 5494 5483 5474 5463 5452 5446
5689 5689 5688 5688 5684 5683 5678 5678 5675 5671 5667 5664 5660 5656 5652 5647 5642 5637 5632 5626 5621 5616 5611 5605 5599 5592 5585 5578 5571 5563 5555 5546 5536 5526 5517 5508 5498 5489 5479 5468 5457 5448 5441 5433
5681 5680 5679 5677 5676 5673 5669 5666 5663 5660 5656 5653 5649 5644 5640 5635 5630 5625 5620 5615 5609 5604 5598 5591 5585 5577 5570 5563 5555 5547 5538 5529 5520 5511 5502 5494 5484 5473 5463 5454 5446 5438 5430 5421